{"data":{"norad_id":65631,"epoch":"2026-09-20T07:28:42.123360Z","epoch_age_seconds":128172,"freshness":"FRESH","line1":"1 65631U 25210K   26263.31159865  .00009835  00000+0  30187-3 0  9994","line2":"2 65631  53.1573 118.4679 0001049  89.5584 270.5539 15.34395691 57588","mean_motion":15.34395691,"eccentricity":0.0001049,"inclination_deg":53.1573,"raan_deg":118.4679,"arg_perigee_deg":89.5584,"mean_anomaly_deg":270.5539,"bstar":0.00030187,"rev_number":5758,"period_min":93.848021631338,"perigee_km":461.99844200848,"apogee_km":463.43365297784,"semimajor_km":6840.8530474932,"source":"CELESTRAK","updated_at":"2026-09-21T09:00:35.674277Z"}}